Погода в Галвестоне

США     29°17′48″N   94°48′12″W
темп.,
°C
ветер,
м/с
пор.,
м/с
влажн.,
%
обл.,
%
осадки,
мм/ч
давл.,
гПа
погр.,
м
21 октября, чт
чт2101:00+25ююв23875 0.1 1017117
04:00+25ю128682 0.0 1017201
07:00+25зсз11845 0.0 1019212
10:00+24ссв549056 0.4 1020211
13:00+25св3381100 0.5 1019140
16:00+26вюв227775 0.0 101771
19:00+25юв338231 0.0 1017138
22:00+25ююв3485100 0.0 1018140
22 октября, пт
пт2201:00+25ююв22873 0.0 101792
04:00+25ю11890 0.0 101673
07:00+25ссв11880 0.1 101670
10:00+25всв338823 0.0 1018229
13:00+25вюв338620 0.0 1017365
16:00+25вюв448429 0.0 1015476
19:00+25юв56875 0.0 1015319
22:00+25юв578875 0.0 1015348
23 октября, сб
сб2301:00+25ююв68871 0.4 1014416
04:00+25ююв58870 1.2 1013302
07:00+25ююв57870 1.3 1013242
10:00+25юв68860 0.4 1015306
13:00+25ююв79835 1.6 1014384
16:00+25юв688116 3.7 1012319
19:00+26ююв710825 5.5 1012388
22:00+25юв912834 0.0 1013555
24 октября, вс
вс2401:00+25юв811860 0.0 1012553
04:00+25юв7108747 0.3 1011423
07:00+25юв698849 1.1 1011310
10:00+25ююв6988100 0.4 1013288
13:00+25ююв6886100 2.0 1013189
16:00+25ю5687100 0.5 1011145
19:00+26ююв5788100 0.5 1011152
22:00+25ююв5790100 0.0 1013158
25 октября, пн
пн2501:00+25ююв579199 0.1 1013176
04:00+25ююв5791100 0.0 1013152
07:00+25ююв5690100 0.1 1013103
10:00+26ююв5689100 0.0 1014105
13:00+25ю5889100 1.2 1013123
16:00+26ююз4588100 0.3 101264
19:00+26ю4588100 0.3 101271
22:00+25ююз5688100 0.1 1014102